Location: Mapua
(41.2500°S, 173.1000°E)
Time: 07:37:11
(UTC+12:00)

Amateur Radio Satellites - All Passes

Search period start: 25 May 2017 07:07
Search period end: 26 May 2017 07:07
Location: Mapua, 41.2500°S, 173.1000°E

Satellite Date Start Highest point End Downlink Frequencies (MHz)
Time Altitude Azimuth
AO-73 25 May 07:25:50 07:29:23 23° 113° (ESE) 07:32:54 145.935
CUTE 1.7 + AOD 2 25 May 07:26:58 07:31:06 53° 280° (W) 07:35:18 437.475
XW-2A 25 May 07:29:15 07:32:37 45° 279° (W) 07:36:00 145.665 - 145.685
ZACube-1 25 May 07:37:40 07:41:46 33° 110° (ESE) 07:45:49 437.345
CUBEBUG 2 25 May 07:38:26 07:43:15 85° 281° (W) 07:48:02 437.445
HO-68 25 May 07:40:55 07:47:52 51° 280° (W) 07:54:54 435.675
M-CUBED/EXP-1 PRIME 25 May 07:42:58 07:43:29 10° 86° (E) 07:43:59 437.505
AAUSAT CUBESAT 2 25 May 07:52:40 07:56:48 89° 95° (E) 08:01:01 437.432
UWE-3 25 May 07:54:10 07:58:52 86° 101° (E) 08:03:33 435.000/436.395/437.385
SEEDS 25 May 08:22:14 08:25:23 20° 273° (W) 08:28:35 437.485
Tancredo 1 25 May 08:29:58 08:32:53 37° 43° (NE) 08:35:49 437.200
DELFI C3 25 May 08:34:43 08:38:00 25° 111° (ESE) 08:41:19 145.870
Oscar 11 25 May 08:37:02 08:41:23 78° 282° (WNW) 08:45:47 .
ISS 25 May 08:37:48 08:40:43 29° 45° (NE) 08:43:39 437.550
STRAND 1 25 May 08:39:14 08:44:08 43° 250° (WSW) 08:48:58 437.568
PCSat 25 May 08:48:04 08:52:49 30° 230° (SW) 08:57:37 145.827
AO-73 25 May 09:01:15 09:05:24 35° 277° (W) 09:09:33 145.935
EO-88 25 May 09:13:39 09:17:14 50° 106° (ESE) 09:20:52 145.990 - 145.960
M-CUBED/EXP-1 PRIME 25 May 09:13:41 09:18:23 87° 250° (WSW) 09:23:05 437.505
ZACube-1 25 May 09:14:21 09:18:03 24° 274° (W) 09:21:43 437.345
UNISAT 6 25 May 09:40:27 09:43:51 21° 87° (E) 09:47:09 437.425
LO-87 25 May 10:05:12 10:08:20 27° 110° (ESE) 10:11:32 145.935 - 145.965
Tancredo 1 25 May 10:05:56 10:08:43 28° 205° (SSW) 10:11:30 437.200
ESTCUBE 1 25 May 10:07:08 10:10:29 21° 114° (ESE) 10:13:51 437.505/2401.250
DELFI C3 25 May 10:09:28 10:12:42 24° 275° (W) 10:15:59 145.870
ISS 25 May 10:14:03 10:17:09 36° 207° (SSW) 10:20:17 437.550
SO-50 25 May 10:15:13 10:19:31 37° 65° (ENE) 10:23:54 436.795
FO-29 25 May 10:23:44 10:30:25 63° 80° (E) 10:36:14 435.910
PRISM 25 May 10:30:53 10:35:08 81° 255° (WSW) 10:39:21 437.425
TIGRISAT 25 May 10:45:14 10:49:42 81° 255° (WSW) 10:54:02 435.000
M-CUBED/EXP-1 PRIME 25 May 10:50:31 10:52:05 12° 235° (SW) 10:53:39 437.505
EO-88 25 May 10:50:35 10:51:13 10° 270° (W) 10:51:51 145.990 - 145.960
VELOX 1 25 May 11:12:42 11:16:25 27° 113° (ESE) 11:20:11 145.980
UNISAT 6 25 May 11:16:35 11:20:38 34° 250° (WSW) 11:24:34 437.425
SPROUT 25 May 11:24:19 11:28:14 34° 110° (ESE) 11:32:12 437.525
NANOSAT C BR1 25 May 11:25:15 11:28:08 17° 87° (E) 11:30:57 145.865
POLYITAN 1 25 May 11:27:18 11:30:30 20° 87° (E) 11:33:39 437.675
AIST 2D 25 May 11:35:06 11:38:35 50° 81° (E) 11:42:00 435.315
QB50P2 25 May 11:35:27 11:39:08 27° 84° (E) 11:42:44 145.880/145.840
50 SAT 25 May 11:36:47 11:39:21 20° 112° (ESE) 11:41:58 437.505
DUCHIFAT 1 25 May 11:36:57 11:40:12 21° 86° (E) 11:43:24 145.980
LO-87 25 May 11:39:09 11:41:47 19° 274° (W) 11:44:27 145.935 - 145.965
ESTCUBE 1 25 May 11:42:47 11:47:00 39° 278° (W) 11:51:17 437.505/2401.250
YUBILEINY 25 May 11:43:21 11:49:11 20° 102° (ESE) 11:54:59 435.215
Tancredo 1 25 May 11:43:41 11:45:16 13° 185° (S) 11:46:52 437.200
ISS 25 May 11:52:21 11:54:23 15° 188° (S) 11:56:25 437.550
UKube-1 25 May 11:53:39 11:56:40 19° 115° (ESE) 11:59:43 .
DX 1 25 May 11:55:45 11:59:29 28° 112° (ESE) 12:03:16 434.975-435.025
SO-50 25 May 11:55:55 12:00:03 29° 227° (SW) 12:04:16 436.795
BUGSAT 1 25 May 12:05:33 12:07:29 13° 90° (E) 12:09:24 437.445
FO-29 25 May 12:09:43 12:14:46 23° 239° (WSW) 12:19:24 435.910
EO-79 25 May 12:13:00 12:17:18 67° 79° (E) 12:21:31 145.935-145.965
VELOX 1 25 May 12:48:53 12:52:45 29° 276° (W) 12:56:42 145.980
NANOSAT C BR1 25 May 12:59:59 13:04:00 39° 251° (WSW) 13:07:57 145.865
SPROUT 25 May 13:00:51 13:04:11 21° 274° (W) 13:07:34 437.525
POLYITAN 1 25 May 13:02:28 13:06:22 34° 250° (WSW) 13:10:11 437.675
50 SAT 25 May 13:09:18 13:12:05 23° 276° (W) 13:14:55 437.505
AIST 2D 25 May 13:10:52 13:11:19 10° 244° (WSW) 13:11:44 435.315
QB50P2 25 May 13:11:15 13:14:49 26° 248° (WSW) 13:18:21 145.880/145.840
DUCHIFAT 1 25 May 13:12:05 13:15:55 33° 250° (WSW) 13:19:42 145.980
ITUPSAT 1 25 May 13:13:43 13:15:58 13° 120° (ESE) 13:18:15 437.325
Tancredo 1 25 May 13:19:52 13:22:01 17° 165° (SSE) 13:24:09 437.200
Gurwin Techsat 1B 25 May 13:27:51 13:32:06 23° 86° (E) 13:36:17 435.225
UKube-1 25 May 13:28:15 13:32:22 42° 279° (W) 13:36:33 .
ISS 25 May 13:29:36 13:31:54 17° 167° (SSE) 13:34:11 437.550
DX 1 25 May 13:31:51 13:35:35 27° 276° (W) 13:39:23 434.975-435.025
YUBILEINY 25 May 13:35:56 13:44:47 84° 263° (W) 13:53:42 435.215
BUGSAT 1 25 May 13:39:03 13:43:10 51° 253° (WSW) 13:47:11 437.445
RS-15 25 May 13:45:32 13:55:59 50° 69° (ENE) 14:06:14 29.354- 29.394
BEESAT 25 May 13:46:37 13:50:40 28° 113° (ESE) 13:54:46 436.000
MOZHAYETS 4 25 May 13:49:48 13:52:32 16° 117° (ESE) 13:55:15
EO-79 25 May 13:50:51 13:52:28 12° 242° (WSW) 13:54:04 145.935-145.965
Oscar 19 25 May 14:07:09 14:12:25 88° 74° (ENE) 14:17:38 437.125/150
ITUPSAT 1 25 May 14:48:18 14:53:08 76° 283° (WNW) 14:58:01 437.325
Tancredo 1 25 May 14:55:07 14:58:16 65° 147° (SSE) 15:01:22 437.200
KKS-1 25 May 14:59:18 15:01:22 13° 119° (ESE) 15:03:27 437.445
ITAMSAT 1 25 May 15:04:38 15:08:59 25° 85° (E) 15:13:15 435.822/435.867
O/OREOS (USA 219) 25 May 15:05:21 15:07:57 15° 81° (E) 15:10:35 437.305
ISS 25 May 15:05:39 15:08:58 54° 149° (SSE) 15:12:15 437.550
Gurwin Techsat 1B 25 May 15:07:06 15:12:13 45° 250° (WSW) 15:17:18 435.225
BEESAT 25 May 15:23:59 15:28:19 33° 277° (W) 15:32:41 436.000
MOZHAYETS 4 25 May 15:24:37 15:29:11 58° 281° (W) 15:33:47
AO-7 25 May 15:30:35 15:38:29 43° 80° (E) 15:46:15 .
STARS 25 May 15:36:02 15:38:16 14° 118° (ESE) 15:40:31 437.465
YUBILEINY 25 May 15:37:26 15:43:01 18° 241° (WSW) 15:48:39 435.215
Oscar 19 25 May 15:48:43 15:50:57 13° 239° (WSW) 15:53:12 437.125/150
PCSat 25 May 15:51:56 15:56:56 35° 128° (SE) 16:01:52 145.827
AO-85 25 May 15:53:11 15:57:01 22° 71° (ENE) 16:01:02 145.980
RS-15 25 May 15:57:40 16:08:17 51° 226° (SW) 16:18:52 29.354- 29.394
CUBESAT XI-V 25 May 16:04:46 16:09:21 67° 106° (ESE) 16:14:00 437.345
Tancredo 1 25 May 16:32:05 16:33:40 13° 310° (NW) 16:35:14 437.200
KKS-1 25 May 16:32:50 16:37:19 69° 281° (WNW) 16:41:53 437.445
BEESAT 3 25 May 16:39:45 16:41:48 14° 70° (ENE) 16:43:50 437.485
O/OREOS (USA 219) 25 May 16:42:29 16:46:52 51° 244° (WSW) 16:51:20 437.305
ISS 25 May 16:42:50 16:45:12 18° 312° (NW) 16:47:33 437.550
ITAMSAT 1 25 May 16:43:38 16:48:33 40° 249° (WSW) 16:53:23 435.822/435.867
STARS 25 May 17:09:37 17:14:03 64° 281° (WNW) 17:18:33 437.465
AO-7 25 May 17:23:24 17:31:12 45° 242° (WSW) 17:38:55 .
AO-85 25 May 17:32:09 17:37:06 52° 232° (SW) 17:42:21 145.980
XW-2B 25 May 17:32:18 17:33:35 11° 90° (E) 17:34:51 145.730 - 145.750
PCSat 25 May 17:35:23 17:40:17 35° 290° (WNW) 17:45:09 145.827
XW-2C 25 May 17:44:46 17:47:17 17° 87° (E) 17:49:47 145.795 - 145.815
CUBESAT XI-V 25 May 17:45:22 17:47:11 12° 269° (W) 17:49:01 437.345
XW-2F 25 May 17:45:22 17:47:47 16° 88° (E) 17:50:12 145.980 - 146.000
BEESAT 2 25 May 17:50:45 17:54:14 31° 65° (ENE) 17:57:43 435.950
NUDT-PHONESAT 25 May 17:50:54 17:53:05 15° 88° (E) 17:55:15 437.300
KAITUO 1B 25 May 17:56:13 17:58:49 18° 87° (E) 18:01:24 145.475/437.950
DOVE 4 25 May 18:03:19 18:08:40 62° 80° (E) 18:13:49 437.250
BEESAT 3 25 May 18:15:14 18:18:58 47° 234° (SW) 18:22:42 437.485
RS-15 25 May 18:16:07 18:24:06 22° 195° (SSW) 18:32:10 29.354- 29.394
STRAND 1 25 May 18:16:18 18:20:54 33° 113° (ESE) 18:25:33 437.568
LilacSat-2 25 May 18:19:38 18:23:22 47° 81° (E) 18:27:03 437.200
CUTE-I 25 May 18:24:02 18:29:13 44° 81° (E) 18:34:18 437.470
M-CUBED/EXP-1 PRIME 25 May 18:28:47 18:29:38 11° 125° (SE) 18:30:31 437.505
SO-50 25 May 18:46:17 18:50:44 36° 131° (SE) 18:55:08 436.795
XW-2A 25 May 18:53:43 18:54:02 10° 89° (E) 18:54:20 145.665 - 145.685
XW-2D 25 May 18:56:23 19:00:10 58° 255° (WSW) 19:03:54 145.860 - 145.880
XW-2B 25 May 19:04:20 19:08:02 48° 253° (WSW) 19:11:41 145.730 - 145.750
HO-68 25 May 19:08:44 19:15:05 32° 84° (E) 19:21:21 435.675
CUTE 1.7 + AOD 2 25 May 19:12:03 19:15:40 26° 85° (E) 19:19:14 437.475
AO-85 25 May 19:16:44 19:18:52 12° 211° (SSW) 19:21:01 145.980
XW-2C 25 May 19:18:07 19:21:33 32° 251° (WSW) 19:24:58 145.795 - 145.815
XW-2F 25 May 19:18:34 19:22:01 33° 251° (WSW) 19:25:27 145.980 - 146.000
AO-7 25 May 19:21:10 19:21:46 10° 220° (SW) 19:22:21 .
NUDT-PHONESAT 25 May 19:23:41 19:27:07 35° 252° (WSW) 19:30:31 437.300
BEESAT 2 25 May 19:28:45 19:31:59 24° 228° (SW) 19:35:14 435.950
KAITUO 1B 25 May 19:29:33 19:32:52 30° 251° (WSW) 19:36:10 145.475/437.950
CUBEBUG 2 25 May 19:30:30 19:33:44 20° 88° (E) 19:36:50 437.445
AAUSAT CUBESAT 2 25 May 19:36:09 19:38:26 14° 89° (E) 19:40:42 437.432
DOVE 4 25 May 19:42:09 19:45:46 19° 243° (WSW) 19:49:19 437.250
UWE-3 25 May 19:45:13 19:48:00 17° 89° (E) 19:50:43 435.000/436.395/437.385
LilacSat-2 25 May 19:55:28 19:57:13 13° 245° (WSW) 19:58:58 437.200
STRAND 1 25 May 19:55:29 20:00:02 30° 276° (W) 20:04:38 437.568
M-CUBED/EXP-1 PRIME 25 May 19:59:45 20:03:23 69° 286° (WNW) 20:07:22 437.505
SEEDS 25 May 20:04:33 20:08:49 65° 79° (ENE) 20:13:02 437.485
CUTE-I 25 May 20:04:36 20:08:58 25° 244° (WSW) 20:13:18 437.470
NO-84 25 May 20:04:50 20:06:03 12° 55° (NE) 20:07:19 435.350 FM
TIGRISAT 25 May 20:11:33 20:11:46 10° 120° (ESE) 20:11:59 435.000
XW-2A 25 May 20:23:44 20:27:00 41° 253° (WSW) 20:30:13 145.665 - 145.685
Oscar 11 25 May 20:25:04 20:28:13 19° 87° (E) 20:31:22 .
SO-50 25 May 20:26:56 20:31:07 30° 294° (WNW) 20:35:13 436.795
RS-15 25 May 20:33:13 20:41:48 25° 158° (SSE) 20:50:33 29.354- 29.394
FO-29 25 May 20:33:59 20:40:50 34° 117° (ESE) 20:47:37 435.910
UNISAT 6 25 May 20:39:00 20:42:32 21° 114° (ESE) 20:46:03 437.425
CUTE 1.7 + AOD 2 25 May 20:47:47 20:51:26 27° 249° (WSW) 20:55:03 437.475
AO-73 25 May 20:48:57 20:53:01 42° 82° (E) 20:56:58 145.935
HO-68 25 May 20:56:06 21:02:58 49° 246° (WSW) 21:09:48 435.675
ZACube-1 25 May 21:01:42 21:05:58 68° 79° (E) 21:10:07 437.345
CUBEBUG 2 25 May 21:06:25 21:10:28 36° 251° (WSW) 21:14:22 437.445
AAUSAT CUBESAT 2 25 May 21:10:04 21:14:08 48° 253° (WSW) 21:18:12 437.432
PRISM 25 May 21:19:37 21:23:42 69° 105° (ESE) 21:27:52 437.425
UWE-3 25 May 21:20:35 21:24:40 41° 252° (WSW) 21:28:37 435.000/436.395/437.385
NO-84 25 May 21:40:17 21:43:08 48° 217° (SW) 21:46:10 435.350 FM
SEEDS 25 May 21:42:16 21:43:56 12° 243° (WSW) 21:45:36 437.485
TIGRISAT 25 May 21:42:56 21:47:40 86° 104° (ESE) 21:52:24 435.000
DELFI C3 25 May 21:45:35 21:49:27 40° 82° (E) 21:53:16 145.870
Oscar 11 25 May 22:00:26 22:04:28 37° 251° (WSW) 22:08:29 .
AIST 2D 25 May 22:09:58 22:12:33 19° 111° (ESE) 22:15:08 435.315
UNISAT 6 25 May 22:14:28 22:18:56 42° 278° (W) 22:23:25 437.425
EO-88 25 May 22:15:51 22:19:34 68° 79° (E) 22:23:14 145.990 - 145.960
FO-29 25 May 22:17:44 22:25:25 57° 279° (W) 22:33:08 435.910
NANOSAT C BR1 25 May 22:17:54 22:20:12 14° 117° (ESE) 22:22:31 145.865
POLYITAN 1 25 May 22:20:12 22:22:58 17° 116° (ESE) 22:25:44 437.675
AO-73 25 May 22:26:11 22:28:53 17° 245° (WSW) 22:31:33 145.935
QB50P2 25 May 22:28:07 22:31:25 22° 113° (ESE) 22:34:44 145.880/145.840
DUCHIFAT 1 25 May 22:29:05 22:31:51 17° 115° (ESE) 22:34:36 145.980
ZACube-1 25 May 22:40:19 22:41:37 11° 242° (WSW) 22:42:56 437.345
RS-15 25 May 22:45:57 22:56:56 63° 129° (SE) 23:08:20 29.354- 29.394
BUGSAT 1 25 May 22:56:31 22:57:23 11° 119° (ESE) 22:58:16 437.445
EO-79 25 May 23:04:52 23:09:01 48° 108° (ESE) 23:13:14 145.935-145.965
LO-87 25 May 23:05:07 23:08:31 33° 83° (E) 23:11:51 145.935 - 145.965
NO-84 25 May 23:20:20 23:21:22 11° 197° (SSW) 23:22:25 435.350 FM
DELFI C3 25 May 23:21:18 23:23:53 17° 246° (WSW) 23:26:27 145.870
ESTCUBE 1 25 May 23:34:52 23:39:14 42° 82° (E) 23:43:34 437.505/2401.250
AIST 2D 25 May 23:42:35 23:45:35 25° 276° (W) 23:48:37 435.315
YUBILEINY 25 May 23:46:25 23:54:55 49° 105° (ESE) 00:03:16 435.215
Oscar 19 25 May 23:47:06 23:50:18 17° 119° (ESE) 23:53:32 437.125/150
NANOSAT C BR1 25 May 23:51:12 23:55:25 55° 280° (W) 23:59:42 145.865
POLYITAN 1 25 May 23:54:11 23:58:21 46° 279° (W) 00:02:35 437.675
DUCHIFAT 1 26 May 00:03:00 00:07:07 45° 279° (W) 00:11:18 145.980
QB50P2 26 May 00:03:01 00:06:58 34° 277° (W) 00:10:58 145.880/145.840
AO-85 26 May 00:23:54 00:28:12 24° 138° (SE) 00:32:20 145.980
BUGSAT 1 26 May 00:27:47 00:32:04 79° 283° (WNW) 00:36:26 437.445
50 SAT 26 May 00:32:04 00:34:46 20° 85° (E) 00:37:26 437.505
VELOX 1 26 May 00:38:06 00:42:33 52° 80° (E) 00:46:56 145.980
LO-87 26 May 00:39:20 00:41:40 16° 247° (WSW) 00:43:59 145.935 - 145.965
AO-7 26 May 00:42:21 00:46:17 14° 136° (SE) 00:50:13 .
EO-79 26 May 00:42:33 00:45:02 15° 271° (W) 00:47:33 145.935-145.965
SPROUT 26 May 00:45:15 00:49:36 64° 79° (E) 00:53:51 437.525
Gurwin Techsat 1B 26 May 00:48:36 00:53:29 37° 112° (ESE) 00:58:26 435.225
BEESAT 3 26 May 00:56:09 00:57:23 11° 140° (SE) 00:58:36 437.485
RS-15 26 May 00:58:53 01:08:46 39° 288° (WNW) 01:19:02 29.354- 29.394
ESTCUBE 1 26 May 01:12:25 01:15:43 20° 245° (WSW) 01:19:00 437.505/2401.250
O/OREOS (USA 219) 26 May 01:13:21 01:17:29 31° 120° (ESE) 01:21:36 437.305
UKube-1 26 May 01:15:12 01:19:08 31° 83° (E) 01:23:00 .
DX 1 26 May 01:19:09 01:23:31 50° 80° (E) 01:27:49 434.975-435.025
Oscar 19 26 May 01:23:57 01:29:03 65° 282° (WNW) 01:34:15 437.125/150
YUBILEINY 26 May 01:43:40 01:51:24 36° 265° (W) 01:59:05 435.215
AO-85 26 May 02:03:55 02:09:07 59° 298° (WNW) 02:13:58 145.980
50 SAT 26 May 02:04:42 02:07:34 23° 249° (WSW) 02:10:24 437.505
BEESAT 2 26 May 02:08:22 02:11:21 21° 134° (SE) 02:14:19 435.950
VELOX 1 26 May 02:15:44 02:18:33 16° 243° (WSW) 02:21:22 145.980
ITAMSAT 1 26 May 02:22:15 02:27:07 40° 111° (ESE) 02:32:03 435.822/435.867
SPROUT 26 May 02:23:04 02:24:55 13° 242° (WSW) 02:26:46 437.525
Gurwin Techsat 1B 26 May 02:28:54 02:33:28 28° 275° (W) 02:38:06 435.225
AO-7 26 May 02:29:07 02:37:18 60° 115° (ESE) 02:45:32 .
BEESAT 3 26 May 02:31:40 02:35:31 89° 301° (WNW) 02:39:21 437.485
NO-84 26 May 02:36:24 02:38:57 18° 154° (SSE) 02:41:40 435.350 FM
ITUPSAT 1 26 May 02:49:15 02:53:22 27° 84° (E) 02:57:27 437.325
UKube-1 26 May 02:51:25 02:55:00 25° 247° (WSW) 02:58:32 .
O/OREOS (USA 219) 26 May 02:52:54 02:56:47 27° 283° (WNW) 03:00:38 437.305
DX 1 26 May 02:56:30 02:59:16 16° 243° (WSW) 03:02:02 434.975-435.025
MOZHAYETS 4 26 May 03:19:46 03:23:56 32° 84° (E) 03:28:02
BEESAT 26 May 03:23:24 03:28:12 63° 79° (ENE) 03:32:56 436.000
BEESAT 2 26 May 03:45:37 03:49:13 37° 296° (WNW) 03:52:47 435.950
ITAMSAT 1 26 May 04:02:19 04:06:40 26° 275° (W) 04:11:04 435.822/435.867
CUBESAT XI-V 26 May 04:02:20 04:05:24 17° 89° (E) 04:08:27 437.345
CUTE-I 26 May 04:11:16 04:11:56 10° 124° (SE) 04:12:34 437.470
NO-84 26 May 04:13:10 04:16:50 82° 318° (NW) 04:20:49 435.350 FM
AO-7 26 May 04:23:12 04:30:25 32° 276° (W) 04:37:43 .
KKS-1 26 May 04:24:22 04:27:59 23° 86° (E) 04:31:32 437.445
ITUPSAT 1 26 May 04:26:54 04:31:10 32° 248° (WSW) 04:35:24 437.325
MOZHAYETS 4 26 May 04:57:08 05:00:55 25° 247° (WSW) 05:04:41
STARS 26 May 04:59:32 05:03:06 23° 85° (E) 05:06:38 437.465
LilacSat-2 26 May 05:01:42 05:04:49 24° 111° (ESE) 05:07:57 437.200
BEESAT 26 May 05:02:38 05:05:26 16° 242° (WSW) 05:08:12 436.000
DOVE 4 26 May 05:08:08 05:12:49 58° 107° (ESE) 05:17:52 437.250
XW-2D 26 May 05:37:01 05:40:48 62° 105° (ESE) 05:44:37 145.860 - 145.880
HO-68 26 May 05:38:08 05:43:46 26° 122° (ESE) 05:49:25 435.675
CUBESAT XI-V 26 May 05:38:28 05:43:02 50° 252° (WSW) 05:47:35 437.345
XW-2B 26 May 05:44:53 05:48:42 76° 104° (ESE) 05:52:34 145.730 - 145.750
CUTE-I 26 May 05:45:35 05:50:57 71° 107° (ESE) 05:56:24 437.470
XW-2C 26 May 05:58:29 06:02:18 71° 281° (WNW) 06:06:10 145.795 - 145.815
XW-2F 26 May 05:58:34 06:02:22 74° 282° (WNW) 06:06:13 145.980 - 146.000
KKS-1 26 May 06:00:27 06:04:35 34° 249° (WSW) 06:08:40 437.445
NUDT-PHONESAT 26 May 06:02:04 06:05:50 84° 282° (WNW) 06:09:39 437.300
CUTE 1.7 + AOD 2 26 May 06:05:06 06:08:06 19° 114° (ESE) 06:11:07 437.475
KAITUO 1B 26 May 06:08:37 06:12:22 68° 282° (WNW) 06:16:10 145.475/437.950
CUBEBUG 2 26 May 06:28:15 06:31:39 20° 115° (ESE) 06:35:01 437.445
STRAND 1 26 May 06:29:41 06:30:32 10° 92° (E) 06:31:22 437.568
PCSat 26 May 06:33:56 06:38:34 30° 71° (ENE) 06:43:15 145.827
STARS 26 May 06:35:26 06:39:29 33° 249° (WSW) 06:43:28 437.465
LilacSat-2 26 May 06:35:52 06:39:00 24° 275° (W) 06:42:10 437.200
UWE-3 26 May 06:42:08 06:45:00 16° 116° (ESE) 06:47:51 435.000/436.395/437.385
DOVE 4 26 May 06:48:03 06:50:57 16° 269° (W) 06:53:59 437.250
XW-2A 26 May 06:54:20 06:57:45 56° 106° (ESE) 07:01:11 145.665 - 145.685
SEEDS 26 May 06:55:53 06:59:51 42° 108° (ESE) 07:03:51 437.485
